Disclaimer

Please do not use the information listed here in-flight or in-navigation, as they are not provided to us by the airports but are provided by volunteers, so they might be outdated.

Search


Regions


Airport information page

Radio informations:
KRUG - 126.9 MHz
Approach (APP) - 126.9 MHz

Airport informations:
Latitude: 43° 30' 46.28" N
Longitude: 043° 38' 11.70" E
Elevation: 1462 feet - 446 meters
Operating hours: 24 hour operations
Operating agency: Civil government, landing fees and diplomatic clearance may be required
Timezone: UTC+3(+4DT) - Last Sunday in March to last Sunday in October
Fuel: N/A

Runway information:
06/24 - 7218 x 138 feet< - >2200 x 42 meters

Recent METARs:
URMN 152100Z 06001MPS 0500 R24/0650 FZFG VV002 M02/M02 Q0999 R24/////// NOSIG RMK QBB070 MT OBSC OBST OBSC QFE713
URMN 152200Z 06001MPS 0400 R24/0450 FZFG VV002 M02/M02 Q0998 R24/////// NOSIG RMK QBB060 MT OBSC OBST OBSC QFE712
URMN 152200Z 06001MPS 0400 R24/0450 FZFG VV002 M02/M02 Q0998 R24/////// NOSIG RMK QBB060 MT OBSC OBST OBSC QFE712

Airport on the map: